Showing default

HYPE, 62687

Orbit data source: Space-Track

HYPE, 62687 is a payload satellite owned by AGH UST (PL) in SSO that was launched on Tue, 14 Jan 2025 UTC via an FALCON 9 launch vehicle from the Air Force Western Test Range (AFWTR). Payload-class satellites include a variety of spacecraft equipped with specific instruments for various scientific and technological missions. These include communications satellites like Starlink; space stations such as the ISS; scientific satellites like the Hubble; Earth observation satellites from companies like Planet Labs, Umbra, and HawkEye 360; GPS; miniature CubeSats for education and research; and military/defense satellites.

Loading next visibility...
Identifier
62687, 2025-009CG
Orbit
SSO
Country
Flag of PLPL / POL
Related business
Manufacturer
AGH UST
Mission
Operational Amateur Technology
Bus & Motor
POCKETQUBE 1P, Unknown motor
Mass
0.25 kg wet, 0.25 kg dry
Launch date (UTC)
2025-01-14 (9 months ago)
Launch vehicle
FALCON 9
Launch site
Air Force Western Test Range (AFWTR)
Object type
Payload
Rocket body
Debris
Shape & HBR
Box, 0.1 m
Radar Cross Section
0.004 m², Small (<0.1 m²)

Expand to show TLE details & history
Last TLE update: 19 hours ago

TLE from 19 hours ago
0 HYPE
1 62687U 25009CG  25298.22283698  .00216817  00000-0  30733-2 0  9994
2 62687  97.4265  22.0211 0003887 280.6408  79.4408 15.55702080 43367
Epoch: 2025-10-25T05:20Z
TLE epoch observation values (Epoch: 2025-10-25T05:20:53.115Z)
Latitude
-0.00005°
Longitude
-92.05668°
Altitude
402.769 km
Speed
7.669 km/s
True Right ascension
01h 28m 05s
True Declination
0° 00' 00"
Sunlit
Object was in full shadow at epoch
Visualization orbit readout
Latitude
Unknown
Longitude
Unknown
Altitude
Unknown
Speed
Unknown
Apparent Right ascension
Unknown
Apparent Declination
Unknown
Sunlit
N/A
Visualization observer readout
Local Sidereal Time
20:07:59
Azimuth
Unknown
Elevation
Unknown
Doppler factor
Unknown
Orbital elements
Apogee altitude
399.665 km
Perigee altitude
394.398 km
Semi-major axis
6,775.169 km
Eccentricity
0.00039
Inclination
97.4265°
RAAN
22.0211°
Arg. of periapsis
280.6408°
True anomaly
79.48459°
Mean anomaly
79.4408°
Eccentric anomaly
79.4627°
Mean motion
3.89191 °/min
Orbital period
92.5 mins
BSTAR
0.0030733
Loading maneuver chart data...
Computing Atmospheric mass density...
Loading historical data...
Loading historical data...
Loading historical data...
Loading historical data...
Loading historical data...
Loading historical data...
Loading historical data...

Documentation

Showing up to 5 results
|